TimeAST,TemperatureF,Dew PointF,Humidity,Sea Level PressureIn,VisibilityMPH,Wind Direction,Wind SpeedMPH,Gust SpeedMPH,PrecipitationIn,Events,Conditions,WindDirDegrees,DateUTC
12:00 AM,82.4,73.4,74,29.92,-9999.0,North,-9999.0,-,N/A,,Mostly Cloudy,0,2013-08-09 04:00:00
1:00 AM,80.6,75.2,84,29.92,-9999.0,North,-9999.0,-,N/A,,Partly Cloudy,0,2013-08-09 05:00:00
2:00 AM,81,74,75,29.93,16,ENE,13.8,,,,Partly Cloudy,70,2013-08-09 06:00:00
2:00 AM,82.4,75.2,79,29.92,-9999.0,North,-9999.0,-,N/A,,Scattered Clouds,0,2013-08-09 06:00:00
3:00 AM,80.6,73.4,79,29.92,6.2,North,-9999.0,-,N/A,Rain,Light Rain Showers,0,2013-08-09 07:00:00
4:00 AM,77.0,71.6,83,29.92,6.2,North,-9999.0,-,N/A,,Scattered Clouds,0,2013-08-09 08:00:00
5:00 AM,80,74,76,29.92,9,East,12.7,,,Thunderstorm,Thunderstorm,80,2013-08-09 09:00:00
5:00 AM,80.6,73.4,79,29.92,6.2,North,-9999.0,-,N/A,Thunderstorm,Light Thunderstorm,0,2013-08-09 09:00:00
6:00 AM,78.8,73.4,83,29.92,6.2,North,-9999.0,-,N/A,Rain,Light Rain,0,2013-08-09 10:00:00
7:00 AM,80.6,73.4,79,29.95,6.2,East,12.7,-,N/A,,Scattered Clouds,80,2013-08-09 11:00:00
8:00 AM,82,74,70,29.95,25,East,17.3,,,,Partly Cloudy,90,2013-08-09 12:00:00
8:00 AM,82.4,73.4,74,29.95,6.2,East,15.0,-,N/A,,Partly Cloudy,90,2013-08-09 12:00:00
9:00 AM,84.2,75.2,74,29.95,6.2,East,15.0,-,N/A,,Scattered Clouds,90,2013-08-09 13:00:00
10:00 AM,86.0,75.2,70,29.95,6.2,East,17.3,-,N/A,,Scattered Clouds,90,2013-08-09 14:00:00
11:00 AM,87,76,63,29.96,25,East,17.3,,,,,100,2013-08-09 15:00:00
11:00 AM,86.0,77.0,74,29.95,6.2,East,17.3,-,N/A,,Scattered Clouds,100,2013-08-09 15:00:00
12:00 PM,87.8,75.2,66,29.95,6.2,East,17.3,-,N/A,,Scattered Clouds,90,2013-08-09 16:00:00
1:00 PM,86.0,77.0,74,29.95,6.2,East,15.0,-,N/A,,Scattered Clouds,100,2013-08-09 17:00:00
2:00 PM,87,75,60,29.95,16,East,15.0,,,,Partly Cloudy,100,2013-08-09 18:00:00
2:00 PM,87.8,75.2,66,29.95,6.2,East,15.0,-,N/A,,Scattered Clouds,100,2013-08-09 18:00:00
3:00 PM,87.8,75.2,66,29.92,6.2,East,12.7,-,N/A,,Scattered Clouds,100,2013-08-09 19:00:00
4:00 PM,87.8,75.2,66,29.92,6.2,East,11.5,-,N/A,,Scattered Clouds,90,2013-08-09 20:00:00
5:00 PM,85,75,65,29.92,16,East,15.0,,,,Mostly Cloudy,90,2013-08-09 21:00:00
5:00 PM,86.0,75.2,70,29.92,6.2,East,15.0,-,N/A,,Mostly Cloudy,90,2013-08-09 21:00:00
6:00 PM,84.2,75.2,74,29.92,6.2,East,15.0,-,N/A,,Scattered Clouds,80,2013-08-09 22:00:00
7:00 PM,84.2,75.2,74,29.92,6.2,East,16.1,-,N/A,,Scattered Clouds,80,2013-08-09 23:00:00
8:00 PM,83,74,68,29.96,16,East,15.0,,,,,90,2013-08-10 00:00:00
8:00 PM,84.2,73.4,70,29.95,6.2,East,15.0,-,N/A,,Scattered Clouds,90,2013-08-10 00:00:00
9:00 PM,84.2,75.2,74,29.98,6.2,East,10.4,-,N/A,,Scattered Clouds,80,2013-08-10 01:00:00
10:00 PM,84.2,75.2,74,29.98,6.2,ENE,11.5,-,N/A,,Scattered Clouds,70,2013-08-10 02:00:00
11:00 PM,83,74,69,29.99,16,ENE,11.5,,,,Partly Cloudy,70,2013-08-10 03:00:00
11:00 PM,82.4,75.2,79,29.98,6.2,ENE,11.5,-,N/A,,Scattered Clouds,70,2013-08-10 03:00:00